Temperature
10 10 11 11 11 11 11 11 11 10 10 11 11 11 10 10 10 9 9 9 9 9 8 8 8 8 8 8 7 7 7 7 7 7 7 7 7 7
10 10 10 10 10 10 10 10 10 10 10 10 10 10 10 9 9 9 9 8 8 8 8 8 8 7 7 7 7 6 6 6 6 6 6 6 6 6
9 10 10 10 10 10 10 10 10 10 10 10 10 10 9 9 9 8 8 8 8 7 7 7 7 7 6 6 6 6 6 6 6 6 6 6 6 6
9 9 9 9 9 10 10 9 9 9 9 9 9 9 9 8 8 8 7 7 7 7 7 7 6 6 6 6 5 5 5 5 5 6 6 6 6 6
9 9 9 9 9 9 9 9 9 9 9 9 9 9 8 8 7 7 7 7 6 6 6 6 6 5 5 5 5 5 5 5 5 5 5 5 5 5
8 8 8 8 9 9 9 9 9 8 8 8 8 8 8 7 7 7 6 6 6 6 6 5 5 5 5 5 4 4 4 4 4 5 5 5 5 5
8 8 8 8 8 8 8 8 8 8 8 8 8 7 7 7 7 6 6 6 5 5 5 5 5 4 4 4 4 4 4 4 4 4 4 4 4 4
7 7 7 7 8 8 8 8 8 7 7 7 7 7 7 7 6 6 6 5 5 5 5 4 4 4 4 4 3 3 3 3 3 4 4 4 4 4
7 7 7 7 7 7 7 7 7 7 7 7 7 7 7 7 6 6 6 6 5 5 4 4 4 4 3 3 3 3 3 3 3 3 3 3 3 3
6 6 6 6 6 6 6 6 6 6 6 6 6 6 6 6 6 6 6 5 4 4 4 4 3 3 3 3 2 2 2 3 2 2 2 2 2 2
6 6 6 5 6 6 6 6 6 6 6 6 6 6 6 5 5 5 5 4 4 4 3 3 3 3 2 2 2 2 2 2 2 2 2 2 2 2
5 5 5 5 5 5 5 5 5 5 5 5 5 5 5 5 5 4 4 4 3 3 3 3 2 2 2 2 2 1 1 1 1 1 1 1 1 1
4 4 4 4 4 4 4 4 4 4 4 4 4 4 4 4 4 4 3 3 3 3 3 2 2 2 1 1 1 1 1 1 1 1 0 0 1 0
3 3 3 3 3 3 3 3 3 3 3 3 3 3 3 3 3 3 3 2 2 2 2 2 1 1 1 1 0 0 0 0 0 0 -0 -0 -0 0
2 3 3 3 3 3 3 3 2 2 3 3 3 3 2 2 2 2 2 2 1 1 1 1 1 1 0 0 -0 0 -0 -0 -0 -0 -0 -1 -0 -0
2 2 2 2 2 2 2 2 2 2 2 2 2 2 2 1 1 1 1 1 1 1 0 0 0 0 -0 -0 -0 -0 -1 -1 -1 -1 -1 -1 -1 -1
1 1 1 1 1 1 1 1 1 1 1 1 1 1 1 1 1 0 0 0 0 0 -0 -0 -0 -1 -1 -1 -1 -1 -1 -1 -1 -1 -1 -1 -1 -1
0 0 0 0 0 0 0 0 0 0 0 0 0 0 0 0 -0 -0 -0 -0 -0 -0 -1 -1 -1 -1 -2 -2 -1 -1 -1 -2 -2 -2 -2 -2 -2 -2
-0 -0 -0 -0 -0 -0 -0 -0 -0 -0 -0 -0 -0 -0 -0 -1 -1 -1 -1 -1 -1 -1 -1 -2 -2 -2 -2 -2 -2 -2 -2 -2 -2 -2 -2 -2 -2 -2
-1 -1 -1 -1 -1 -1 -1 -1 -1 -1 -1 -1 -1 -1 -1 -1 -1 -1 -2 -2 -2 -2 -2 -2 -2 -2 -2 -3 -3 -3 -3 -3 -3 -3 -3 -3 -3 -3
-2 -2 -2 -2 -1 -2 -2 -2 -2 -2 -2 -2 -2 -2 -2 -2 -2 -2 -2 -2 -2 -3 -3 -3 -3 -3 -3 -3 -3 -3 -3 -3 -3 -3 -3 -3 -3 -3
-3 -3 -3 -2 -2 -2 -2 -2 -2 -2 -2 -2 -3 -3 -3 -3 -3 -3 -3 -3 -3 -3 -3 -4 -4 -4 -4 -4 -4 -4 -4 -4 -4 -4 -4 -4 -4 -4
-3 -3 -3 -3 -3 -3 -3 -3 -3 -3 -3 -3 -3 -3 -3 -3 -3 -3 -3 -4 -4 -4 -4 -4 -4 -4 -4 -5 -4 -5 -5 -5 -5 -5 -5 -5 -4 -4
Wind_Speed
10 10 8 6 6 5 5 5 6 6 8 6 4 4 7 8 9 8 7 7 7 6 5 4 3 2 3 3 2 2 3 3 4 5 6 7 6 6
8 10 9 7 7 6 6 6 5 6 6 4 3 3 5 6 9 9 8 8 8 7 6 5 4 4 4 4 3 3 3 3 4 4 5 6 6 5
9 10 11 9 8 7 6 6 6 4 5 2 1 2 4 6 6 7 7 7 7 8 7 6 6 5 5 4 3 2 2 3 3 3 4 6 6 4
11 10 10 8 9 8 8 8 7 5 4 5 3 3 4 6 5 5 5 6 6 7 8 7 7 6 6 4 3 3 3 3 3 3 4 5 6 5
11 11 11 10 10 7 8 8 7 5 4 5 4 2 2 4 4 3 3 3 4 6 8 8 7 7 6 5 4 3 3 3 3 3 4 5 6 6
9 10 10 11 11 10 8 9 7 7 5 5 4 3 3 3 4 4 4 3 2 3 5 6 6 6 6 5 4 3 3 3 3 3 4 5 5 6
8 9 9 10 11 10 8 8 9 7 6 5 5 4 4 5 6 5 4 3 2 2 2 3 3 3 4 4 4 3 3 3 3 3 3 4 5 6
8 8 7 8 10 10 11 11 12 11 10 7 6 7 7 6 5 5 5 4 3 3 4 3 3 3 3 3 4 4 3 3 3 3 3 4 5 6
7 6 5 6 8 7 8 9 11 13 12 10 9 9 9 9 10 8 6 5 4 5 4 3 2 2 3 4 4 4 4 3 4 4 4 5 6 7
6 6 6 6 7 7 7 5 5 6 8 7 8 8 7 9 10 9 7 5 4 2 4 3 3 2 2 2 3 3 4 4 5 5 5 6 7 7
4 4 5 6 7 8 7 6 4 2 3 6 6 7 9 12 12 8 8 6 3 3 3 3 3 2 1 1 1 2 4 4 5 5 5 6 6 7
2 3 5 5 7 8 7 7 7 4 4 5 6 7 8 10 12 8 9 7 4 3 4 4 3 3 2 1 1 1 2 3 4 4 5 5 6 6
2 2 3 5 6 8 7 6 8 7 6 7 6 6 5 5 5 5 5 5 5 3 5 5 4 3 3 1 1 1 2 2 2 2 3 4 6 6
2 2 2 5 5 6 5 6 9 8 6 6 6 5 5 5 5 6 7 6 5 5 8 6 4 5 4 3 1 1 1 1 2 1 2 3 4 4
1 2 2 3 4 4 5 7 8 6 6 6 6 4 3 5 6 6 7 8 8 7 7 5 4 4 4 4 3 2 1 1 1 2 1 2 2 2
1 0 1 2 2 3 5 5 4 4 5 6 5 5 5 5 5 4 4 5 4 3 4 5 5 5 3 3 4 3 3 2 2 2 1 1 2 4
1 1 1 1 2 2 2 3 3 4 4 4 5 5 5 5 4 4 4 4 3 4 3 2 4 4 3 4 3 4 3 2 3 3 2 1 2 4
2 2 2 2 2 2 3 3 3 4 4 5 5 6 6 6 5 4 4 4 4 4 4 3 4 3 2 0 3 4 3 3 3 3 3 2 2 3
1 1 1 2 1 2 2 2 2 3 4 5 5 6 6 6 6 5 5 4 4 4 4 4 4 4 4 2 1 5 4 3 3 3 3 3 3 3
0 1 1 1 1 1 1 2 2 3 4 4 5 5 6 6 6 6 6 5 5 4 4 3 4 5 5 4 3 2 5 5 4 3 2 2 2 3
1 1 1 1 1 1 1 2 2 3 4 4 5 5 6 6 6 6 6 8 5 4 5 5 4 6 4 4 2 1 2 6 6 4 3 2 1 1
1 1 1 1 1 2 2 2 2 2 4 4 5 5 5 5 6 7 6 6 5 5 5 3 4 4 3 4 3 3 2 1 4 6 6 6 4 4
2 1 1 1 2 2 2 2 3 3 3 4 4 4 5 5 5 6 6 6 6 6 5 5 4 3 4 4 4 3 3 2 2 2 2 7 9 10
Wind_Direction
213 213 216 211 205 202 193 190 193 223 233 218 204 195 188 185 188 184 186 188 184 176 162 148 135 129 127 116 92 52 34 19 5 4 6 359 357 1
214 216 220 218 208 204 202 204 205 212 229 211 202 185 183 181 185 182 186 186 183 178 170 160 148 138 126 113 86 55 39 29 16 20 16 11 15 25
216 219 222 216 213 209 205 202 206 203 221 230 196 170 179 180 176 178 183 177 182 185 179 172 162 152 146 129 108 78 51 44 35 28 21 21 22 33
218 221 224 217 216 211 206 207 208 200 203 215 212 190 193 183 176 176 180 179 181 188 182 173 167 160 149 133 128 107 76 56 44 39 33 32 32 42
217 218 219 213 218 218 213 209 205 199 194 195 201 196 181 169 168 174 180 178 172 180 177 174 170 166 158 150 134 109 84 71 61 51 48 42 41 48
217 216 216 213 213 212 214 210 200 194 188 182 186 184 173 164 168 179 190 190 180 156 164 165 166 163 162 160 142 124 102 93 86 74 64 52 54 62
216 217 217 214 212 209 212 207 197 198 191 190 191 189 185 179 193 182 187 169 174 166 156 157 159 161 163 161 151 140 123 107 96 91 80 71 68 71
220 221 218 212 212 210 210 206 200 196 196 196 201 199 197 193 180 178 166 168 196 186 162 169 159 170 176 179 171 161 147 132 121 115 107 96 85 81
219 218 222 220 208 206 206 203 207 206 198 195 198 203 196 191 180 180 180 178 181 167 154 169 160 174 188 192 182 174 163 150 141 129 116 112 104 96
221 217 216 216 210 198 191 194 205 206 202 198 197 196 193 184 183 178 166 136 100 129 147 159 165 170 157 184 174 168 169 161 155 144 130 119 111 104
229 220 213 215 208 187 176 181 184 192 175 163 163 164 166 166 161 147 149 154 159 173 159 147 151 137 125 143 177 157 163 163 158 153 144 135 126 114
231 222 215 211 201 188 182 180 184 180 152 141 134 132 142 154 161 166 165 163 153 169 171 149 146 137 131 107 119 146 150 155 157 161 159 152 140 126
248 243 227 205 197 194 191 192 186 166 156 146 138 134 131 135 138 138 144 155 155 160 161 146 142 142 140 144 114 109 132 145 159 170 163 161 158 151
258 260 225 202 198 195 192 181 166 153 147 145 145 150 149 145 131 122 116 106 101 128 150 144 142 152 142 138 164 122 99 133 145 155 174 165 164 166
305 280 236 190 181 180 176 167 160 157 155 159 164 163 147 136 122 111 102 98 86 89 120 134 135 140 138 151 157 153 148 160 162 161 176 193 200 183
356 325 182 161 143 156 161 160 161 168 164 167 158 139 127 128 129 126 126 125 112 94 82 107 137 138 142 151 159 174 175 184 174 170 173 204 217 206
97 106 110 128 147 145 139 142 148 155 157 148 144 141 142 140 135 130 129 132 137 146 139 113 107 111 120 146 167 185 181 189 192 176 167 194 228 226
118 138 160 174 179 174 168 163 162 164 162 154 154 155 155 154 147 139 136 143 147 150 152 150 137 113 89 319 208 189 184 189 183 176 173 188 230 226
111 152 183 193 191 179 172 172 176 167 158 160 161 160 157 155 150 153 154 151 152 155 159 157 154 151 161 199 210 198 176 171 163 170 185 193 213 227
55 208 215 209 194 183 181 175 166 157 159 163 163 161 161 159 159 162 167 165 162 161 160 165 175 177 182 179 176 187 190 177 171 175 179 185 233 265
300 257 224 204 199 189 182 183 179 175 170 169 172 170 168 164 166 169 170 172 166 166 177 188 195 174 137 120 129 173 203 204 195 180 167 161 190 220
285 259 234 208 200 192 183 182 183 179 174 176 177 177 174 171 173 173 173 172 175 175 175 163 143 144 151 175 184 174 176 189 212 212 211 201 179 194
295 274 241 213 200 194 188 189 191 193 188 180 180 180 178 180 179 176 175 174 170 167 161 157 157 161 172 180 181 181 182 180 177 188 234 237 233 236
Height
1485 1488 1490 1492 1495 1498 1500 1502 1504 1503 1503 1505 1506 1507 1509 1510 1512 1513 1514 1514 1515 1515 1515 1515 1515 1515 1514 1514 1515 1514 1514 1513 1513 1512 1512 1512 1511 1511
1478 1481 1483 1485 1488 1490 1492 1494 1496 1498 1497 1498 1499 1501 1503 1504 1505 1507 1508 1509 1509 1510 1510 1510 1510 1510 1510 1510 1511 1511 1510 1510 1510 1510 1510 1509 1509 1509
1470 1473 1475 1478 1480 1482 1484 1486 1488 1490 1491 1491 1493 1495 1496 1498 1499 1501 1502 1502 1504 1505 1505 1505 1506 1506 1506 1507 1507 1507 1507 1507 1507 1507 1507 1507 1507 1507
1462 1465 1467 1470 1472 1474 1476 1478 1480 1482 1484 1484 1485 1487 1489 1491 1493 1495 1496 1497 1498 1499 1500 1500 1501 1502 1502 1503 1503 1503 1504 1504 1504 1505 1505 1505 1505 1505
1454 1457 1459 1462 1463 1466 1468 1470 1472 1474 1476 1477 1478 1480 1482 1484 1486 1488 1490 1491 1492 1493 1495 1495 1496 1497 1498 1499 1499 1500 1500 1501 1501 1502 1502 1503 1503 1503
1446 1449 1451 1453 1455 1458 1459 1461 1464 1466 1468 1469 1471 1473 1475 1477 1480 1482 1483 1485 1486 1488 1489 1491 1492 1493 1494 1495 1495 1496 1497 1497 1498 1499 1499 1500 1501 1501
1438 1441 1443 1445 1447 1450 1452 1453 1455 1457 1459 1461 1464 1466 1467 1470 1472 1475 1477 1479 1481 1483 1484 1485 1487 1488 1489 1490 1491 1492 1493 1494 1495 1496 1497 1497 1498 1499
1431 1433 1435 1437 1439 1441 1443 1445 1447 1449 1451 1453 1456 1458 1460 1463 1465 1468 1470 1473 1475 1478 1479 1480 1482 1483 1485 1486 1487 1489 1490 1491 1492 1493 1494 1495 1496 1497
1425 1426 1428 1429 1432 1433 1435 1437 1439 1441 1444 1446 1448 1450 1453 1456 1458 1461 1463 1466 1468 1471 1473 1474 1477 1479 1481 1482 1484 1485 1486 1487 1488 1490 1491 1492 1493 1494
1418 1420 1421 1423 1425 1427 1428 1430 1431 1433 1436 1439 1441 1444 1447 1450 1452 1455 1457 1460 1463 1465 1467 1470 1472 1474 1476 1478 1480 1481 1483 1484 1485 1486 1488 1489 1490 1492
1412 1414 1415 1416 1418 1420 1422 1423 1425 1427 1430 1432 1435 1438 1441 1443 1446 1449 1451 1454 1456 1460 1462 1465 1467 1470 1472 1474 1476 1478 1479 1481 1482 1484 1485 1486 1488 1489
1407 1408 1409 1411 1412 1414 1416 1417 1419 1420 1422 1425 1428 1432 1435 1438 1440 1443 1446 1449 1451 1453 1456 1459 1462 1465 1468 1470 1472 1474 1476 1478 1479 1481 1482 1483 1485 1486
1402 1403 1404 1405 1407 1408 1410 1412 1413 1416 1418 1420 1423 1427 1430 1432 1435 1438 1441 1445 1447 1449 1452 1455 1458 1460 1463 1465 1468 1470 1472 1474 1476 1477 1479 1480 1482 1484
1399 1399 1400 1401 1402 1403 1406 1407 1409 1411 1414 1416 1419 1422 1425 1427 1430 1433 1436 1440 1443 1445 1448 1451 1453 1456 1458 1461 1464 1466 1469 1470 1472 1474 1476 1477 1479 1480
1396 1396 1396 1397 1397 1399 1401 1403 1405 1407 1409 1412 1415 1418 1421 1423 1426 1429 1432 1435 1438 1441 1444 1447 1450 1452 1455 1457 1460 1462 1465 1467 1469 1470 1472 1474 1475 1477
1393 1393 1394 1394 1395 1396 1397 1399 1401 1403 1406 1409 1411 1414 1417 1420 1423 1425 1429 1431 1434 1437 1441 1444 1446 1449 1451 1453 1456 1458 1460 1462 1464 1466 1468 1470 1471 1473
1391 1391 1391 1391 1392 1393 1394 1396 1398 1400 1403 1405 1408 1410 1413 1416 1419 1422 1425 1428 1431 1434 1437 1440 1442 1445 1447 1450 1452 1454 1456 1458 1460 1462 1464 1466 1467 1469
1388 1388 1388 1388 1389 1390 1391 1393 1395 1397 1400 1402 1405 1408 1410 1413 1416 1419 1422 1425 1428 1430 1433 1436 1439 1441 1444 1446 1449 1450 1452 1454 1456 1458 1460 1462 1463 1465
1386 1385 1386 1386 1387 1388 1390 1391 1393 1395 1397 1400 1402 1405 1407 1410 1412 1416 1419 1422 1424 1427 1430 1433 1435 1437 1440 1442 1445 1447 1449 1451 1452 1454 1455 1457 1459 1461
1384 1384 1385 1385 1386 1386 1388 1389 1391 1393 1395 1397 1399 1402 1404 1407 1409 1412 1415 1418 1421 1424 1426 1429 1432 1434 1437 1439 1441 1443 1445 1447 1449 1450 1451 1453 1455 1457
1382 1382 1383 1383 1384 1385 1385 1387 1389 1391 1393 1395 1397 1399 1402 1404 1406 1409 1412 1415 1417 1420 1423 1426 1429 1432 1433 1436 1437 1439 1442 1443 1445 1446 1448 1449 1450 1452
1380 1380 1380 1381 1382 1383 1384 1385 1387 1388 1390 1393 1395 1397 1399 1401 1404 1407 1409 1411 1414 1417 1420 1423 1425 1428 1430 1432 1433 1436 1438 1440 1441 1442 1444 1445 1446 1448
1378 1378 1378 1378 1379 1380 1382 1383 1384 1385 1387 1389 1392 1394 1396 1398 1401 1403 1406 1408 1411 1414 1416 1419 1422 1424 1426 1428 1430 1432 1434 1436 1437 1439 1440 1442 1443 1445